Location: Nairn
(57.5833°N, 3.8667°W)
Time: 19:25:38
(UTC+00:00)

ERBS - Pass Details

Date: 07 August 2020
Orbit: 413 x 420 km, 57.0° (Epoch: 24 September)

Event Time Altitude Azimuth Distance (km) Brightness Sun altitude
Rises 01:16:27 0° 283° (WNW) 2,358 6.1 -15.2°
Reaches altitude 10° 01:18:35 10° 278° (W) 1,493 5.0 -15.1°
Maximum altitude 01:21:47 47° 203° (SSW) 557 2.4 -15.0°
Drops below altitude 10° 01:25:00 10° 128° (SE) 1,487 4.8 -14.9°
Sets 01:27:07 0° 123° (ESE) 2,347 5.9 -14.8°
